Temperature
19 18 18 19 19 19 19 19 19 19 19 19 19 19 19 19 19 19 19 19 18 18 18 18 18 18 18 18 18 18 18 18 18 18 18 18 18 18 18 18 18 18 18
18 18 18 19 19 19 19 19 19 19 19 19 19 19 19 19 19 18 18 18 18 18 18 18 18 18 18 18 18 18 18 18 18 18 18 18 18 17 18 18 18 18 18
19 18 19 18 19 19 19 19 19 19 19 19 19 19 19 19 19 18 18 18 18 18 18 18 18 18 18 18 18 18 18 18 17 17 17 18 18 17 18 18 18 18 18
19 19 19 19 19 19 19 19 19 19 19 19 19 19 19 19 18 18 18 18 18 18 18 18 18 18 18 18 18 18 18 18 18 17 18 18 17 17 17 18 17 17 17
19 19 18 19 19 19 19 19 19 19 19 19 19 19 19 19 18 18 18 18 18 18 18 18 18 18 18 18 18 18 18 18 18 18 18 18 17 17 17 17 17 17 17
19 19 18 19 18 18 18 18 18 19 19 19 19 19 18 18 18 18 18 18 18 18 18 18 18 18 18 18 18 18 18 18 18 18 18 17 17 17 17 17 17 17 17
19 19 18 18 18 19 19 19 19 19 19 19 19 19 18 18 18 18 18 18 18 18 18 18 18 18 18 18 18 18 18 18 18 18 18 18 17 17 17 17 17 17 17
19 19 19 18 19 19 19 19 19 19 19 18 18 18 18 18 18 18 18 18 18 18 18 18 18 18 18 18 18 18 18 18 18 18 18 17 17 17 17 17 17 17 17
19 19 18 18 18 19 19 19 19 18 18 18 18 18 18 18 18 18 18 18 18 18 18 18 18 18 18 18 18 18 18 18 18 18 18 18 17 17 17 17 17 17 17
19 19 19 18 18 18 18 18 18 18 18 18 18 18 18 18 18 18 18 18 18 18 18 18 18 18 18 18 18 18 18 18 18 18 18 18 17 18 17 17 17 17 17
19 19 19 18 18 18 18 18 18 18 18 18 18 18 18 18 18 18 18 18 18 18 18 18 18 18 18 18 18 18 18 18 18 18 18 18 18 17 17 17 17 17 17
19 19 19 18 19 18 18 18 18 18 18 18 18 18 18 18 18 18 18 18 18 18 18 18 18 18 18 18 18 18 18 18 18 18 18 18 17 17 17 17 17 17 17
19 19 19 19 18 19 19 18 18 18 18 18 18 18 18 18 18 18 18 18 18 18 18 18 18 18 18 18 18 18 18 18 18 18 18 17 17 17 17 17 17 17 17
19 19 19 19 18 18 18 18 18 18 18 18 18 18 18 18 18 18 18 18 18 18 18 18 18 18 18 18 18 18 18 18 18 18 18 17 17 17 17 17 17 17 17
19 19 19 19 19 18 18 18 18 18 18 18 18 18 18 18 18 18 18 18 18 18 18 18 18 18 18 18 18 18 18 18 18 18 18 17 17 17 17 17 17 17 17
19 19 19 19 19 19 18 18 18 18 18 18 18 18 18 18 18 18 18 18 18 18 18 18 18 18 18 18 18 18 18 18 18 18 18 18 17 17 17 17 17 17 17
19 19 19 19 19 19 19 18 18 18 18 18 18 18 18 18 18 18 18 18 18 18 18 18 18 18 18 18 18 18 18 18 18 18 18 17 17 17 17 17 17 17 17
20 19 19 19 19 19 18 18 18 18 18 18 18 18 18 18 18 18 18 18 18 18 18 18 18 18 18 18 18 18 18 18 18 18 17 17 17 17 17 17 17 17 17
20 20 19 19 19 19 18 18 18 18 18 18 18 18 18 18 18 18 18 18 18 18 18 18 18 18 18 18 18 18 18 18 18 18 17 17 17 17 17 17 17 17 17
20 20 19 19 19 19 18 18 18 18 18 18 18 18 18 18 18 18 18 18 18 18 18 18 18 18 18 18 18 18 18 18 18 18 17 17 17 17 17 17 17 17 17
20 20 19 19 19 19 19 18 18 18 18 18 18 18 18 18 18 18 18 18 18 18 18 18 18 18 17 17 18 18 18 18 17 17 17 17 17 17 17 17 17 17 17
20 20 20 19 19 19 19 18 18 18 18 18 18 18 18 18 18 18 18 18 18 18 18 18 17 17 17 17 17 17 17 17 17 17 17 17 17 17 17 17 17 17 17
20 20 20 20 19 19 19 18 18 18 18 18 18 18 18 18 18 18 18 18 18 18 18 17 17 17 17 17 17 17 17 17 17 17 17 17 17 17 17 17 17 17 17
21 20 20 20 20 19 19 19 19 19 18 18 18 18 18 18 18 18 18 18 18 18 18 17 17 17 17 17 17 17 17 17 16 16 16 16 16 17 17 17 17 17 16
21 21 20 20 20 19 19 19 19 19 19 18 18 18 18 18 18 18 18 18 18 18 18 17 17 17 17 17 17 17 17 17 16 16 16 16 16 16 16 16 16 16 16
21 21 21 20 20 20 20 19 19 19 19 19 18 18 18 18 18 18 18 18 18 18 17 17 17 17 17 17 17 17 17 16 16 16 16 16 16 16 16 16 16 16 16
Wind_Speed
2 3 2 1 3 5 6 7 8 8 9 9 9 9 8 9 10 11 12 13 13 14 14 13 13 13 13 14 15 15 15 15 16 15 14 13 13 14 14 14 13 11 13
1 2 1 2 4 6 7 8 8 9 9 9 9 9 9 10 11 12 12 13 13 13 13 12 12 12 13 14 15 14 15 15 15 14 13 12 13 13 13 13 12 11 13
1 1 1 4 6 7 8 8 9 9 10 10 10 9 10 11 12 12 12 13 13 13 12 12 11 11 13 15 15 15 14 14 14 13 12 10 11 12 12 13 12 12 13
2 2 2 6 7 8 8 8 9 10 10 10 10 10 11 12 12 12 12 12 12 12 11 11 12 12 14 14 15 14 14 13 13 12 9 8 9 11 11 11 12 12 12
3 2 2 6 7 7 8 8 9 10 10 10 10 10 11 12 12 11 11 11 11 11 11 11 11 12 13 13 13 12 12 12 11 10 8 7 8 10 11 10 10 10 11
3 2 2 6 6 7 8 8 8 9 9 9 10 10 10 11 11 10 10 10 10 10 10 10 11 11 11 11 11 10 10 10 9 8 7 7 7 9 10 10 9 9 9
2 2 3 5 6 7 8 8 8 8 9 9 10 10 9 9 9 9 9 8 9 9 9 10 10 10 10 9 9 9 9 8 7 6 6 6 6 8 8 9 8 8 8
3 3 3 5 6 7 8 8 8 8 8 9 9 9 9 9 9 8 8 7 8 8 8 9 9 8 8 8 8 8 8 8 7 6 5 5 7 7 8 8 8 8 8
4 4 4 4 5 6 7 8 8 8 8 9 8 8 8 8 8 8 7 6 7 7 8 8 8 8 8 7 7 6 6 7 6 5 5 5 6 7 7 7 7 7 8
4 4 5 5 5 5 5 7 8 9 9 9 9 9 8 8 8 7 7 7 7 7 8 8 8 7 7 6 5 5 5 5 5 5 4 5 6 6 6 6 6 6 7
3 4 4 4 4 5 5 6 7 8 8 8 8 9 8 6 6 6 6 7 7 7 8 8 8 7 5 4 4 4 3 3 4 4 4 6 6 6 5 5 5 6 6
1 2 2 3 3 4 4 6 6 6 7 7 6 7 6 6 6 6 7 7 8 8 8 7 7 6 4 3 3 3 2 3 3 3 4 6 6 6 5 5 5 5 6
1 1 2 2 3 3 3 4 4 5 5 6 6 6 6 6 5 6 5 6 6 6 5 6 5 4 3 3 2 2 2 2 2 3 4 5 6 6 5 5 5 5 5
2 1 2 2 3 2 3 3 3 3 3 3 4 5 4 3 4 3 3 4 4 3 3 3 3 3 3 2 2 2 1 1 2 3 4 5 6 6 6 5 6 6 6
3 2 2 2 2 2 3 2 3 3 2 3 3 3 3 3 3 2 2 3 3 3 3 2 2 2 2 2 1 1 1 1 2 2 3 5 5 5 5 6 6 7 7
3 3 2 3 2 3 3 2 2 2 2 2 2 2 3 2 2 2 2 2 2 2 2 2 2 2 1 2 1 0 1 1 1 2 2 3 4 5 6 6 6 6 7
4 3 3 3 3 3 2 2 2 2 2 1 1 2 2 2 2 2 2 2 2 2 2 2 3 2 2 2 2 1 0 0 1 1 2 2 3 4 5 5 6 6 7
4 3 3 3 3 2 2 2 2 2 2 1 1 1 2 1 2 2 1 1 1 2 2 2 2 2 2 1 1 1 1 0 1 1 1 2 3 3 4 5 6 6 7
5 4 3 3 3 2 2 2 2 2 1 1 1 1 1 1 2 2 1 1 2 2 1 1 1 1 1 1 1 1 1 1 1 1 1 2 2 3 4 5 5 5 5
4 4 3 3 3 3 2 2 2 2 2 1 1 1 1 1 2 2 1 1 2 1 1 1 1 1 1 1 2 2 2 1 1 1 1 1 1 2 3 3 4 5 6
4 4 4 3 3 3 2 1 1 0 1 1 1 1 1 1 2 2 1 1 1 1 0 0 1 1 1 1 1 2 3 2 2 1 1 1 1 2 2 2 3 3 4
6 6 5 4 4 3 2 2 1 1 0 0 1 2 1 1 1 1 1 1 1 1 1 1 1 1 1 1 1 1 2 3 3 2 1 1 2 2 1 2 2 3 3
7 7 7 6 5 4 3 2 2 2 2 2 1 1 1 1 0 0 1 1 1 1 0 1 0 1 0 1 1 2 1 1 2 2 2 1 2 2 2 2 2 3 3
8 7 6 6 5 4 4 4 3 2 2 2 1 1 2 1 0 0 1 1 1 1 0 1 0 0 1 1 0 0 1 2 1 2 2 2 2 2 2 2 2 2 2
8 7 6 6 5 5 5 5 4 3 2 1 0 0 1 1 1 0 1 1 1 1 1 0 0 0 1 1 1 1 0 0 1 1 3 3 2 2 2 2 2 2 2
6 6 6 6 6 5 6 5 5 5 4 2 1 1 1 1 1 1 1 1 1 1 1 1 1 0 1 1 1 1 1 1 1 1 2 3 3 3 2 2 1 2 2
Wind_Direction
294 293 290 60 82 83 87 90 93 96 99 105 109 112 116 124 130 131 129 127 125 125 127 128 131 136 139 139 138 137 135 134 132 132 130 131 137 140 142 142 139 137 138
269 279 213 91 91 94 92 91 90 94 97 101 106 109 112 121 126 126 125 124 123 123 122 122 126 133 138 139 137 135 135 135 134 134 132 133 139 141 144 143 141 140 141
38 3 105 106 98 98 95 94 93 96 99 99 102 103 105 115 119 120 121 120 120 122 120 120 121 125 131 136 135 133 132 134 134 133 130 130 138 143 144 145 143 143 142
74 65 97 105 102 100 98 94 96 98 100 97 98 100 104 110 113 115 117 118 119 120 119 120 119 122 126 129 133 132 132 132 135 133 126 129 139 147 146 146 147 149 146
60 61 98 103 100 103 103 96 96 98 96 96 97 100 103 107 109 112 116 120 121 122 122 121 123 122 125 128 131 133 136 138 139 131 126 126 136 148 147 146 150 151 150
52 45 84 99 100 99 99 96 95 95 95 96 98 99 104 107 109 109 112 118 122 125 126 123 121 121 124 129 132 136 139 140 134 125 123 126 133 148 151 153 155 155 154
59 43 70 90 96 98 98 96 95 93 93 95 99 102 105 108 110 110 108 109 115 122 127 125 123 126 131 133 136 139 141 140 131 130 135 142 144 148 155 158 157 158 160
67 53 61 82 88 93 92 91 93 94 91 91 96 98 102 105 109 109 108 107 115 119 124 126 123 124 130 134 139 141 144 139 138 140 144 152 152 154 162 163 164 166 168
55 50 41 48 73 81 84 84 89 93 90 89 90 92 96 100 102 103 100 102 114 117 118 123 123 121 122 131 137 137 140 140 139 142 149 152 154 159 162 169 173 172 175
47 43 40 39 50 60 66 74 81 84 83 81 81 85 89 90 92 94 86 93 108 112 113 115 112 116 120 125 135 136 131 131 137 146 154 159 163 165 168 180 183 184 184
50 37 42 48 52 63 72 73 72 75 73 73 75 77 72 63 68 77 78 86 94 97 98 100 100 102 106 108 118 123 120 130 145 155 165 169 173 177 184 189 196 198 200
70 42 46 63 67 70 76 70 63 64 62 60 61 64 62 63 64 65 66 73 78 80 84 87 83 84 90 94 96 95 101 127 150 169 182 185 188 194 198 200 207 212 214
125 84 72 75 74 75 75 76 68 66 62 57 56 57 59 57 55 51 45 46 52 61 62 64 61 64 74 90 94 93 115 146 163 181 191 194 200 208 212 217 219 222 227
119 119 90 86 86 82 87 78 80 80 72 63 57 66 72 63 52 48 43 34 40 46 49 49 57 57 60 74 106 128 152 173 176 187 199 204 210 214 217 221 228 232 236
145 149 127 110 102 95 91 84 82 79 76 67 64 69 86 82 62 53 44 37 33 47 59 57 56 50 45 49 85 130 180 196 180 181 202 214 214 215 222 230 238 244 242
165 164 141 127 121 109 100 92 84 91 87 72 66 60 78 88 79 64 48 35 37 49 63 71 56 48 30 29 27 64 183 178 178 191 209 231 233 231 237 240 243 248 248
173 159 142 139 111 103 104 103 95 98 94 87 60 55 76 96 100 86 66 48 37 52 67 72 55 54 41 37 12 358 336 208 195 215 228 236 248 250 246 249 253 253 254
162 154 151 140 116 111 100 94 94 95 96 91 70 69 81 110 120 104 81 54 59 72 74 75 65 65 49 43 15 344 350 289 228 233 235 240 251 258 261 260 262 262 262
169 158 149 132 131 129 101 82 82 77 74 69 62 65 71 96 122 128 113 67 69 75 66 80 82 100 75 28 16 1 345 324 286 266 257 259 255 255 262 268 274 272 269
164 154 151 140 132 118 93 70 50 36 23 31 41 44 81 108 124 131 108 54 67 68 46 56 76 55 60 23 34 16 356 345 349 331 276 279 272 266 267 267 275 282 279
160 159 165 161 157 126 102 97 87 345 329 2 335 348 50 73 101 122 102 74 75 77 47 58 96 56 23 17 52 16 9 13 14 348 320 304 291 279 273 266 266 273 283
178 179 180 185 176 169 160 143 143 151 192 250 343 6 24 35 77 135 119 101 80 74 38 32 79 88 10 38 95 70 353 353 5 358 356 343 326 317 307 294 276 263 272
188 189 194 193 187 186 166 120 89 66 40 29 3 348 337 328 331 145 134 139 105 111 71 312 262 152 216 9 81 145 153 261 317 341 350 346 334 327 313 308 296 280 277
198 189 188 185 184 184 168 158 156 160 186 223 243 286 321 343 343 171 159 154 148 138 177 277 306 213 177 271 339 69 189 189 205 306 328 342 338 330 322 315 314 316 301
192 184 184 179 185 183 178 177 173 186 200 198 191 300 315 328 322 287 191 163 162 182 216 264 36 91 173 212 221 219 187 88 204 227 290 316 329 323 322 307 304 312 309
182 180 179 180 192 187 184 185 187 195 190 180 204 237 281 298 306 302 226 179 194 214 235 246 221 202 223 219 220 204 193 192 208 208 248 287 301 305 317 317 294 293 294
Height
1500 1499 1498 1497 1496 1496 1495 1495 1495 1496 1496 1496 1496 1497 1497 1497 1498 1500 1502 1504 1505 1507 1508 1510 1511 1513 1514 1516 1519 1522 1524 1527 1529 1531 1532 1534 1536 1538 1541 1543 1545 1546 1548
1501 1500 1499 1498 1498 1497 1497 1497 1497 1497 1497 1498 1498 1498 1498 1498 1499 1502 1504 1505 1507 1508 1510 1512 1513 1513 1513 1514 1519 1522 1525 1527 1529 1531 1533 1535 1537 1539 1541 1543 1545 1547 1549
1502 1501 1500 1500 1499 1499 1499 1499 1499 1499 1500 1500 1500 1500 1500 1500 1502 1504 1506 1507 1509 1510 1512 1513 1514 1514 1512 1514 1519 1523 1526 1528 1530 1533 1534 1536 1538 1540 1542 1544 1546 1548 1549
1504 1503 1502 1502 1502 1501 1501 1501 1501 1501 1502 1502 1502 1503 1503 1504 1505 1507 1508 1510 1511 1512 1514 1515 1516 1516 1516 1518 1522 1525 1528 1530 1532 1534 1535 1537 1539 1541 1543 1545 1546 1548 1550
1506 1506 1505 1505 1504 1504 1504 1504 1504 1504 1504 1504 1505 1505 1506 1507 1508 1509 1511 1512 1513 1515 1516 1517 1518 1519 1520 1522 1525 1527 1529 1531 1533 1535 1536 1538 1540 1541 1543 1545 1547 1548 1550
1509 1508 1507 1507 1507 1507 1507 1507 1507 1507 1507 1507 1507 1508 1509 1510 1511 1512 1514 1515 1516 1517 1518 1519 1520 1521 1523 1525 1527 1529 1531 1533 1535 1536 1538 1539 1540 1542 1544 1545 1547 1548 1550
1511 1511 1510 1510 1510 1510 1510 1510 1510 1510 1510 1510 1510 1511 1511 1512 1514 1515 1516 1517 1518 1519 1520 1521 1523 1524 1526 1527 1529 1531 1533 1535 1537 1538 1539 1540 1541 1543 1544 1545 1547 1548 1549
1514 1514 1513 1513 1513 1513 1513 1513 1512 1512 1513 1513 1513 1513 1514 1515 1516 1517 1518 1519 1520 1521 1522 1523 1525 1526 1528 1529 1532 1534 1535 1537 1538 1539 1541 1542 1543 1544 1545 1546 1547 1548 1550
1517 1517 1516 1516 1516 1516 1516 1516 1516 1516 1516 1516 1516 1516 1517 1517 1518 1519 1520 1521 1522 1523 1524 1525 1526 1528 1529 1531 1533 1535 1536 1538 1539 1540 1542 1543 1544 1545 1546 1547 1548 1549 1550
1519 1519 1519 1519 1519 1519 1519 1519 1519 1519 1519 1519 1519 1519 1520 1520 1521 1522 1522 1523 1524 1525 1526 1527 1528 1530 1531 1533 1534 1536 1537 1538 1540 1542 1543 1543 1545 1545 1546 1547 1548 1549 1550
1522 1522 1522 1522 1522 1522 1522 1522 1522 1522 1522 1522 1522 1522 1523 1523 1524 1525 1525 1526 1527 1528 1529 1529 1531 1532 1533 1535 1536 1537 1538 1540 1541 1542 1543 1544 1545 1546 1546 1547 1548 1549 1550
1523 1524 1524 1525 1525 1525 1525 1524 1524 1525 1525 1525 1525 1526 1526 1526 1527 1528 1528 1529 1530 1530 1531 1532 1533 1534 1535 1536 1537 1539 1540 1541 1542 1543 1544 1545 1545 1546 1546 1547 1548 1549 1549
1525 1526 1526 1527 1527 1527 1527 1527 1527 1527 1528 1528 1528 1529 1529 1529 1530 1531 1531 1531 1532 1533 1534 1535 1536 1536 1537 1538 1539 1540 1541 1542 1543 1543 1544 1545 1545 1546 1546 1547 1548 1548 1549
1527 1528 1528 1529 1529 1529 1530 1530 1530 1530 1530 1531 1531 1531 1532 1532 1532 1533 1533 1534 1535 1536 1536 1537 1537 1538 1539 1539 1540 1541 1542 1542 1543 1544 1544 1545 1545 1546 1546 1546 1547 1547 1548
1529 1530 1530 1531 1531 1531 1532 1532 1532 1533 1533 1533 1534 1534 1534 1535 1535 1535 1536 1537 1537 1538 1538 1538 1539 1539 1540 1540 1541 1541 1542 1543 1543 1544 1544 1545 1545 1546 1546 1546 1546 1546 1546
1530 1531 1532 1532 1533 1533 1533 1534 1534 1535 1535 1536 1536 1537 1537 1537 1537 1537 1538 1539 1539 1539 1539 1540 1540 1540 1541 1541 1541 1542 1543 1543 1543 1544 1544 1544 1545 1545 1545 1545 1545 1545 1545
1531 1532 1533 1534 1534 1535 1535 1536 1536 1537 1537 1538 1538 1539 1539 1539 1539 1540 1540 1540 1540 1541 1541 1541 1541 1541 1541 1541 1542 1542 1543 1543 1543 1543 1544 1544 1544 1544 1544 1544 1544 1544 1544
1533 1533 1534 1535 1536 1536 1537 1538 1538 1539 1539 1539 1540 1540 1541 1541 1541 1541 1541 1541 1542 1542 1542 1542 1541 1541 1542 1542 1542 1542 1542 1542 1543 1543 1543 1543 1543 1543 1543 1543 1543 1543 1543
1534 1535 1535 1536 1537 1538 1538 1539 1540 1540 1540 1541 1541 1542 1542 1542 1543 1543 1542 1543 1543 1543 1542 1542 1542 1542 1542 1542 1542 1542 1542 1542 1542 1542 1542 1542 1542 1542 1542 1542 1542 1542 1541
1534 1535 1536 1537 1538 1539 1539 1540 1540 1541 1541 1542 1543 1543 1543 1544 1544 1544 1544 1544 1544 1543 1543 1543 1542 1542 1542 1542 1541 1541 1541 1541 1541 1541 1541 1541 1541 1541 1541 1541 1541 1540 1540
1534 1535 1536 1537 1538 1539 1540 1540 1541 1541 1542 1543 1543 1544 1544 1545 1545 1545 1545 1545 1544 1544 1543 1543 1542 1542 1542 1542 1541 1541 1540 1540 1540 1540 1540 1540 1540 1539 1539 1539 1539 1539 1538
1533 1535 1536 1537 1538 1539 1540 1541 1541 1542 1542 1543 1544 1544 1545 1545 1545 1546 1546 1545 1545 1544 1544 1543 1542 1542 1541 1541 1541 1540 1539 1540 1539 1539 1539 1538 1538 1538 1538 1537 1537 1537 1536
1532 1534 1535 1536 1538 1539 1540 1541 1541 1542 1542 1543 1544 1544 1545 1545 1545 1546 1545 1545 1545 1544 1544 1543 1542 1541 1541 1541 1540 1540 1540 1539 1538 1538 1538 1537 1537 1536 1536 1536 1535 1535 1534
1530 1533 1534 1536 1537 1539 1540 1540 1541 1541 1542 1543 1543 1544 1545 1545 1545 1545 1545 1545 1545 1544 1543 1542 1542 1541 1540 1540 1539 1539 1539 1539 1538 1537 1537 1536 1535 1535 1534 1534 1533 1533 1532
1529 1531 1533 1535 1536 1538 1539 1540 1540 1541 1542 1543 1544 1544 1545 1545 1545 1545 1545 1544 1544 1543 1543 1542 1541 1541 1540 1539 1538 1538 1537 1537 1537 1536 1535 1534 1533 1533 1532 1532 1531 1530 1530
1527 1529 1531 1533 1535 1536 1537 1539 1540 1540 1541 1542 1543 1543 1544 1544 1544 1544 1544 1544 1543 1543 1542 1541 1540 1540 1539 1538 1537 1537 1536 1536 1535 1535 1534 1532 1531 1531 1530 1530 1529 1529 1528